Wind_Speed
7 10 9 6 6 9 14 10 11 23 22 10 14 9 4 13 12 5 21 21 22 20 18 18 17 15 14 14 14 14 15 15 17 18 19 18 17 17 17 18 19 18 17 17 18 18 18 18 17
10 12 12 14 16 20 11 13 19 18 17 16 11 7 8 10 3 12 21 23 21 18 17 15 13 12 12 12 13 14 14 15 16 16 17 18 17 17 16 17 18 17 17 16 17 17 16 17 15
10 12 14 14 12 10 16 21 18 18 11 12 10 10 8 6 15 19 19 20 19 15 13 12 11 12 11 11 12 14 14 14 15 15 16 16 16 16 17 17 17 16 16 16 16 18 18 17 16
8 14 14 10 8 15 19 21 20 19 15 11 8 11 9 13 18 17 18 17 15 12 12 10 9 9 13 14 13 14 14 16 16 16 16 16 16 16 17 17 18 17 16 16 15 16 16 17 16
7 19 11 9 12 19 24 22 14 11 10 13 12 13 15 18 15 16 15 15 11 9 8 8 9 11 10 11 13 15 15 17 17 15 16 16 16 16 16 16 17 17 16 16 16 16 15 15 16
12 17 12 10 22 29 23 18 15 4 3 5 11 18 22 19 14 15 15 12 12 8 7 8 10 11 10 12 12 14 15 14 16 16 16 15 16 16 17 17 17 17 16 15 16 17 16 16 17
17 28 13 13 17 25 25 14 11 3 2 4 6 19 23 19 13 13 13 11 10 10 9 9 9 10 11 12 13 14 14 14 16 16 15 14 16 17 17 17 17 16 15 15 16 16 16 17 17
17 22 14 3 12 21 22 13 7 3 9 9 9 8 18 22 15 13 14 13 11 10 9 8 9 10 10 12 13 14 15 16 17 16 15 14 16 17 16 16 15 15 14 14 15 17 17 18 17
13 10 6 5 11 20 17 13 11 7 2 8 8 11 19 20 15 15 11 10 7 8 8 6 8 9 9 10 13 15 16 17 16 14 15 15 16 17 16 15 15 15 14 14 15 16 18 18 18
8 1 10 18 12 21 19 21 21 16 11 8 16 15 15 18 15 9 8 8 7 8 6 7 8 8 9 10 11 14 14 13 14 14 15 17 17 18 17 15 14 14 14 15 16 18 20 20 19
5 1 7 11 10 24 25 26 18 17 11 6 7 19 18 18 15 11 13 11 6 5 5 8 8 8 9 10 12 11 10 12 17 17 15 16 15 16 16 15 14 15 14 14 16 19 22 21 20
7 5 5 1 9 18 17 28 25 20 8 11 10 13 18 17 13 10 11 9 5 6 8 7 10 10 9 10 11 13 13 19 22 18 15 15 15 16 16 17 14 15 18 16 15 17 19 20 19
8 10 9 4 12 19 18 26 32 21 12 14 12 14 14 10 10 7 8 7 6 5 7 10 13 11 13 10 7 17 19 22 21 17 14 14 16 17 14 15 12 15 15 12 12 14 19 21 19
3 10 14 8 8 27 22 19 25 15 21 19 16 13 9 11 9 9 8 6 5 5 7 12 13 12 13 13 10 25 24 23 18 18 15 14 17 15 15 15 18 20 18 17 14 15 20 20 19
3 6 8 10 11 21 23 21 25 26 27 22 19 15 10 13 8 5 4 7 4 7 9 12 10 15 13 17 23 22 22 21 15 13 13 14 16 17 17 17 18 18 18 17 15 19 20 20 19
4 4 7 7 6 12 25 23 19 27 31 30 22 17 12 14 9 7 2 7 3 4 7 11 17 16 16 22 19 16 17 16 15 11 12 16 16 13 15 15 19 18 19 19 20 21 19 19 18
6 4 5 7 9 15 11 18 25 33 30 26 22 20 16 16 15 12 5 7 5 3 5 8 16 17 16 19 21 19 17 16 16 14 15 14 13 12 14 17 18 19 17 18 20 20 18 16 17
1 1 7 5 10 6 9 14 31 36 39 24 25 20 20 17 12 11 6 8 2 3 4 8 13 17 18 16 17 15 14 16 15 14 13 13 14 11 17 19 16 18 16 17 19 19 17 16 15
7 7 4 12 6 9 11 12 24 31 31 34 33 27 24 17 15 15 7 5 2 3 5 8 13 16 15 16 14 14 14 14 13 12 13 14 11 11 21 14 13 16 19 16 18 16 15 14 14
4 4 5 7 5 4 10 13 20 21 31 34 35 30 28 25 18 18 11 4 4 4 3 8 12 14 13 14 14 13 13 11 12 14 12 13 14 12 15 13 15 16 18 16 17 17 16 14 12
12 11 5 8 12 13 11 16 15 26 27 41 35 34 31 25 22 17 15 5 6 3 2 6 14 15 15 15 14 15 15 12 10 11 14 13 12 11 12 13 15 12 19 16 18 16 16 14 12
17 9 6 5 9 7 11 5 9 21 33 42 35 36 34 31 26 16 14 7 8 3 1 7 15 14 14 17 17 13 12 11 11 11 10 11 11 11 9 10 14 14 17 20 15 16 15 15 13
14 11 8 3 5 2 7 5 7 9 35 46 38 33 37 37 32 24 14 6 7 4 4 8 13 14 14 13 16 15 15 15 12 10 12 11 10 10 9 10 11 10 13 21 17 17 20 16 14
17 17 9 5 3 3 7 10 7 7 19 36 36 34 37 41 35 27 18 12 11 10 7 9 10 14 15 15 14 15 14 13 12 10 9 10 11 12 11 9 9 10 11 14 17 19 19 14 17
17 21 5 5 1 5 8 9 8 14 12 37 40 37 42 44 39 33 26 17 16 14 12 7 11 12 15 13 13 11 11 11 10 10 11 9 9 11 14 12 11 11 8 9 15 19 15 18 18
26 19 7 6 4 3 10 9 5 14 13 12 19 40 37 42 43 37 28 20 15 15 11 9 6 12 12 13 13 12 14 12 12 10 10 10 9 11 12 14 15 14 12 11 12 16 16 14 18
24 17 8 4 4 1 5 10 15 11 17 22 20 43 46 44 46 42 32 23 20 18 12 7 7 9 13 11 12 11 11 12 10 12 10 9 9 9 11 13 13 12 12 12 13 14 18 17 17
13 9 6 7 4 4 6 10 10 5 15 15 23 32 57 47 47 44 35 27 22 19 13 9 9 10 11 13 13 13 12 12 11 10 10 10 10 9 9 13 12 12 13 14 15 15 15 16 20
13 12 6 6 3 5 2 5 8 4 7 9 6 22 50 52 48 43 34 32 30 22 16 12 14 11 7 10 13 15 14 14 12 12 12 10 11 13 11 10 11 14 17 17 16 15 16 17 18
11 4 11 10 4 3 4 3 12 6 6 2 2 10 37 44 43 37 36 33 31 31 22 15 18 16 11 11 12 16 16 16 15 14 14 14 11 13 13 12 13 12 15 15 18 16 16 16 15
Wind_Direction
120 125 86 96 113 130 134 151 150 139 141 130 135 113 118 129 129 157 136 130 124 126 128 130 127 127 126 122 116 109 104 103 105 109 112 112 111 113 113 112 111 109 109 110 111 113 112 106 101
129 124 95 98 117 126 137 156 153 147 144 152 137 149 142 146 184 162 141 136 127 130 129 126 126 129 131 127 121 113 108 106 107 111 113 114 113 110 108 107 108 108 109 109 106 105 102 101 105
135 133 121 121 99 117 141 156 152 155 151 163 161 176 181 169 130 150 144 132 130 131 129 128 130 135 138 137 130 122 117 115 112 113 116 113 111 109 108 106 105 108 112 112 111 104 105 98 104
145 140 143 110 116 144 146 147 152 144 168 190 208 174 179 131 145 149 146 133 133 136 137 136 137 138 137 138 138 133 127 120 117 116 114 111 106 105 105 107 108 109 111 112 111 114 108 102 109
123 197 179 93 117 149 149 149 147 150 156 181 180 155 148 142 147 145 141 131 128 140 140 136 136 140 137 136 138 139 135 125 118 115 115 114 113 111 111 111 113 113 114 115 114 112 109 103 108
193 167 154 105 130 146 155 154 156 173 119 170 185 172 139 135 129 144 145 137 139 149 142 133 135 139 140 141 139 142 141 134 128 126 116 116 122 121 120 117 115 118 118 119 115 114 118 114 109
167 157 143 120 147 145 148 177 151 76 112 114 168 162 145 144 151 141 141 140 139 140 137 135 139 142 147 146 146 149 149 145 138 136 135 128 131 129 125 124 121 121 122 120 116 118 117 113 110
144 161 152 127 181 165 154 163 183 213 116 121 145 199 156 144 146 141 134 133 134 135 139 141 144 148 150 153 154 154 147 143 144 139 137 133 131 124 122 122 122 122 122 115 111 115 117 116 120
133 177 207 196 188 188 185 195 180 132 107 139 175 168 148 137 125 132 131 132 131 160 154 151 153 155 147 156 160 157 149 146 138 135 132 132 130 126 125 128 128 125 120 114 116 122 123 124 116
123 188 235 183 208 187 168 183 173 156 151 148 149 132 126 131 104 110 125 115 125 152 152 163 155 157 149 152 158 157 156 151 146 142 139 135 136 132 130 125 124 118 114 115 121 126 126 127 121
144 25 178 234 225 160 170 175 172 171 148 132 93 131 142 147 135 107 101 117 133 112 163 162 156 156 146 149 157 168 168 173 165 152 145 139 133 127 127 126 120 113 109 115 124 126 128 126 122
215 228 296 284 197 164 165 175 178 183 135 135 133 126 127 120 125 104 87 77 100 119 149 141 144 157 138 155 162 157 157 150 155 153 154 140 133 126 125 127 124 131 118 113 126 131 127 123 122
233 235 287 218 204 186 188 182 180 181 179 150 163 140 124 134 127 128 94 54 53 127 163 138 149 143 127 129 152 163 155 147 150 152 153 140 139 132 129 136 131 144 147 145 136 139 132 132 127
250 234 260 244 254 209 207 214 176 181 175 168 176 147 134 140 140 128 90 38 30 129 155 154 148 141 131 113 134 153 156 155 149 150 149 141 147 141 131 131 130 135 140 147 146 150 138 136 129
202 240 261 248 236 213 216 234 217 169 180 187 182 166 156 150 157 95 72 16 32 136 142 169 171 150 130 128 131 131 146 157 154 150 149 153 159 148 143 142 134 135 138 136 146 143 140 139 135
155 208 218 247 211 219 214 225 186 185 193 185 180 180 182 170 181 171 195 9 357 136 150 161 162 150 137 133 137 136 137 153 162 154 154 152 159 159 159 157 141 145 136 131 133 133 132 138 129
208 203 217 214 203 187 152 173 174 176 187 177 181 189 189 186 190 190 224 339 335 185 171 163 150 149 151 139 141 149 151 152 151 159 152 144 165 161 151 161 156 146 132 130 134 136 137 137 135
195 296 244 191 190 164 187 193 192 181 176 183 181 197 193 194 198 204 232 322 329 215 184 176 161 164 154 154 156 154 156 155 153 151 153 148 159 152 163 164 156 164 155 145 146 147 147 148 140
294 303 185 160 98 197 233 212 180 191 182 182 185 195 200 197 204 203 233 290 259 169 168 169 177 165 157 146 150 158 166 167 161 155 146 142 139 146 168 183 185 176 164 158 157 155 156 153 148
261 224 171 212 216 172 181 202 194 189 190 188 190 200 208 207 202 214 218 265 204 167 121 190 192 174 162 150 155 160 151 152 158 147 142 145 150 161 180 183 177 177 173 174 169 167 162 157 162
220 232 264 280 233 217 220 249 240 218 202 189 194 199 209 204 210 222 226 227 204 160 26 213 192 180 174 166 173 174 157 152 150 148 147 153 158 167 180 180 179 178 190 185 188 179 174 169 172
224 251 226 203 236 218 215 278 251 221 190 193 194 200 204 203 217 231 225 239 194 149 260 204 197 190 184 180 179 172 162 166 170 164 160 160 164 165 170 179 196 198 206 202 203 197 194 187 185
237 241 206 241 295 242 216 258 267 236 202 193 195 201 209 208 212 224 230 210 185 213 255 180 206 193 185 190 180 184 182 182 185 187 174 174 174 174 189 188 190 197 202 208 211 208 209 200 200
240 197 160 119 25 294 246 219 271 260 230 206 199 201 211 209 211 217 226 214 209 206 218 177 182 202 189 183 190 198 194 192 188 203 207 191 191 186 196 210 203 209 212 205 214 218 208 218 211
203 177 105 49 182 228 193 195 266 264 259 216 203 199 206 208 212 210 212 213 207 214 210 195 182 198 203 197 190 203 200 201 200 199 209 207 192 188 195 202 203 193 207 207 202 204 213 221 227
185 197 174 167 213 191 202 234 251 237 228 210 239 203 204 210 210 213 207 207 210 199 199 207 187 183 202 206 203 201 210 217 202 204 208 213 207 198 196 202 202 202 203 190 208 219 224 224 230
194 214 210 145 148 194 235 268 301 272 208 213 230 212 208 207 208 211 207 206 216 204 189 175 210 203 199 213 215 208 207 207 220 204 209 214 213 204 209 215 213 217 218 213 209 214 222 228 237
205 205 175 202 141 233 269 277 278 232 191 226 220 212 206 207 207 207 204 205 205 190 198 218 221 229 204 206 216 222 213 215 219 212 216 211 212 219 206 206 211 225 232 235 230 224 221 226 233
212 200 213 166 209 157 256 274 342 331 238 271 258 224 207 206 212 204 206 208 213 213 206 215 211 200 196 210 214 222 227 219 218 230 228 225 225 220 220 220 225 223 226 223 231 234 229 227 230
153 121 220 221 204 198 248 293 5 265 230 261 270 183 209 207 213 206 207 221 218 215 206 205 213 219 224 233 228 224 227 230 229 226 227 229 225 226 228 241 217 223 227 224 225 227 236 239 241
Height
3152 3151 3152 3152 3158 3155 3156 3160 3161 3162 3165 3167 3168 3168 3169 3168 3170 3174 3173 3174 3174 3177 3179 3180 3181 3183 3184 3184 3186 3185 3186 3186 3187 3187 3188 3189 3190 3191 3192 3193 3193 3193 3194 3194 3194 3195 3196 3197 3198
3152 3152 3154 3154 3157 3156 3159 3160 3163 3165 3166 3167 3169 3169 3170 3170 3170 3171 3173 3175 3176 3179 3181 3182 3184 3185 3186 3186 3186 3188 3188 3189 3189 3190 3190 3191 3192 3193 3194 3195 3195 3194 3195 3197 3198 3199 3199 3199 3200
3153 3153 3155 3157 3159 3159 3160 3163 3162 3166 3168 3169 3169 3170 3172 3172 3171 3174 3175 3176 3178 3181 3183 3184 3185 3186 3187 3188 3189 3189 3190 3191 3192 3192 3194 3194 3195 3196 3196 3198 3198 3199 3199 3200 3201 3202 3203 3202 3203
3154 3155 3158 3158 3159 3161 3162 3164 3166 3165 3168 3169 3171 3172 3173 3175 3175 3176 3177 3178 3181 3183 3184 3186 3186 3186 3188 3189 3190 3191 3192 3193 3194 3196 3197 3197 3198 3199 3199 3201 3201 3202 3202 3203 3205 3206 3206 3206 3206
3155 3155 3159 3160 3161 3161 3165 3167 3168 3168 3169 3171 3172 3171 3172 3174 3177 3178 3180 3181 3183 3185 3186 3187 3187 3188 3189 3190 3192 3193 3193 3195 3196 3197 3199 3199 3200 3200 3202 3203 3204 3204 3204 3205 3207 3208 3208 3208 3209
3155 3154 3159 3162 3162 3163 3166 3169 3169 3170 3171 3171 3172 3172 3173 3176 3179 3179 3181 3183 3184 3186 3187 3188 3188 3189 3190 3191 3193 3195 3196 3197 3198 3200 3201 3202 3202 3203 3203 3204 3206 3206 3207 3209 3210 3210 3210 3211 3212
3156 3156 3159 3163 3164 3166 3168 3169 3171 3172 3173 3171 3172 3172 3174 3177 3180 3181 3183 3184 3185 3186 3188 3189 3190 3191 3191 3192 3194 3196 3197 3199 3200 3202 3203 3203 3203 3204 3206 3207 3208 3210 3211 3212 3213 3213 3213 3214 3214
3158 3159 3160 3163 3165 3164 3168 3169 3171 3173 3173 3173 3175 3175 3175 3177 3181 3182 3184 3185 3187 3188 3189 3190 3190 3192 3192 3194 3195 3196 3198 3200 3202 3204 3204 3206 3207 3209 3210 3210 3211 3213 3214 3215 3215 3216 3216 3217 3218
3160 3163 3162 3161 3162 3164 3168 3170 3173 3174 3174 3175 3175 3177 3178 3179 3181 3183 3185 3186 3188 3189 3190 3191 3192 3193 3194 3194 3197 3197 3200 3202 3205 3207 3207 3209 3210 3211 3211 3213 3214 3215 3216 3216 3217 3217 3217 3219 3220
3160 3162 3160 3163 3161 3161 3166 3170 3171 3173 3174 3176 3175 3178 3180 3182 3184 3186 3187 3188 3189 3189 3191 3192 3193 3194 3195 3196 3199 3198 3201 3203 3206 3208 3209 3210 3211 3212 3213 3215 3216 3218 3218 3218 3219 3219 3220 3221 3223
3161 3161 3162 3163 3163 3164 3165 3169 3173 3174 3175 3177 3177 3178 3182 3184 3186 3189 3190 3189 3190 3191 3192 3193 3195 3195 3196 3197 3199 3201 3203 3204 3207 3209 3212 3213 3215 3216 3216 3217 3219 3220 3219 3220 3221 3222 3223 3224 3226
3161 3162 3162 3162 3163 3164 3166 3167 3171 3174 3176 3179 3181 3182 3185 3187 3189 3191 3192 3192 3192 3192 3194 3194 3195 3196 3197 3199 3200 3202 3204 3204 3209 3211 3213 3216 3217 3218 3219 3219 3221 3221 3221 3222 3223 3224 3226 3227 3229
3160 3161 3162 3162 3163 3164 3166 3166 3168 3173 3176 3180 3182 3184 3187 3189 3191 3192 3193 3193 3193 3194 3195 3196 3197 3198 3198 3199 3200 3202 3205 3207 3210 3213 3215 3218 3219 3219 3219 3219 3220 3222 3223 3224 3225 3226 3228 3230 3231
3160 3161 3161 3161 3161 3163 3164 3166 3168 3173 3176 3179 3182 3184 3187 3190 3192 3194 3194 3196 3195 3196 3197 3198 3199 3199 3201 3201 3199 3202 3206 3209 3212 3214 3216 3219 3221 3221 3221 3221 3222 3223 3224 3226 3227 3229 3231 3233 3234
3159 3160 3159 3160 3160 3161 3163 3164 3164 3171 3175 3179 3182 3184 3187 3190 3194 3196 3196 3197 3195 3197 3198 3199 3199 3201 3202 3203 3203 3206 3209 3211 3213 3216 3218 3220 3222 3222 3223 3224 3225 3226 3227 3229 3230 3232 3234 3235 3236
3158 3159 3159 3159 3159 3159 3160 3161 3162 3170 3173 3177 3182 3185 3187 3191 3195 3197 3198 3198 3198 3199 3199 3201 3201 3203 3204 3206 3207 3209 3211 3213 3215 3218 3220 3222 3222 3223 3225 3226 3227 3229 3230 3231 3232 3234 3236 3238 3238
3157 3157 3159 3159 3158 3158 3159 3162 3162 3167 3172 3176 3181 3184 3187 3191 3194 3198 3199 3199 3200 3201 3201 3202 3202 3205 3206 3207 3210 3212 3214 3215 3217 3219 3222 3223 3224 3225 3226 3227 3229 3230 3232 3234 3235 3237 3239 3240 3241
3157 3156 3157 3160 3160 3160 3162 3163 3163 3165 3169 3176 3182 3183 3186 3190 3194 3198 3199 3200 3200 3201 3201 3201 3203 3206 3207 3208 3210 3213 3215 3217 3218 3220 3222 3224 3225 3227 3229 3230 3231 3232 3233 3235 3237 3239 3241 3242 3243
3156 3156 3156 3159 3159 3160 3163 3162 3162 3162 3166 3174 3178 3183 3186 3190 3194 3196 3199 3200 3200 3202 3202 3202 3204 3206 3207 3210 3212 3214 3217 3218 3220 3221 3223 3224 3226 3228 3231 3232 3233 3234 3235 3236 3239 3241 3243 3245 3246
3157 3156 3156 3159 3160 3159 3160 3162 3163 3164 3167 3171 3176 3180 3184 3188 3191 3194 3197 3199 3201 3202 3204 3204 3205 3206 3208 3210 3213 3215 3217 3220 3221 3222 3223 3226 3227 3228 3230 3232 3233 3235 3236 3238 3240 3243 3245 3246 3247
3155 3156 3156 3160 3160 3160 3160 3162 3160 3163 3164 3168 3173 3177 3180 3185 3188 3192 3194 3198 3200 3202 3204 3204 3207 3209 3210 3211 3213 3216 3217 3220 3222 3223 3225 3228 3229 3230 3230 3231 3233 3235 3236 3239 3241 3243 3245 3247 3249
3156 3156 3157 3159 3157 3160 3159 3159 3155 3154 3159 3164 3169 3172 3176 3181 3187 3191 3194 3196 3199 3201 3203 3204 3206 3209 3211 3213 3214 3217 3219 3222 3223 3224 3226 3227 3229 3230 3231 3232 3234 3234 3236 3239 3241 3244 3246 3247 3249
3154 3155 3157 3158 3156 3158 3157 3159 3152 3151 3153 3158 3163 3169 3172 3178 3184 3189 3193 3195 3198 3200 3201 3203 3206 3209 3211 3214 3215 3217 3219 3221 3223 3225 3226 3227 3228 3230 3231 3233 3234 3235 3236 3239 3241 3243 3246 3247 3249
3150 3155 3156 3156 3156 3158 3156 3157 3151 3150 3148 3153 3160 3166 3170 3175 3181 3187 3192 3195 3197 3199 3201 3202 3205 3208 3210 3213 3215 3218 3219 3221 3222 3224 3226 3227 3228 3230 3231 3231 3233 3235 3236 3238 3240 3242 3245 3246 3248
3149 3152 3153 3157 3159 3157 3153 3153 3147 3145 3145 3145 3152 3160 3165 3171 3177 3183 3189 3192 3195 3198 3201 3202 3203 3207 3209 3212 3214 3216 3219 3221 3222 3223 3225 3226 3228 3229 3230 3231 3233 3233 3236 3237 3238 3240 3243 3245 3246
3144 3147 3148 3155 3155 3150 3151 3145 3139 3136 3140 3144 3147 3156 3160 3165 3172 3178 3185 3190 3193 3197 3199 3201 3202 3204 3207 3211 3214 3215 3218 3220 3221 3223 3224 3225 3226 3228 3229 3231 3232 3233 3234 3236 3237 3239 3241 3242 3244
3142 3144 3146 3146 3148 3149 3145 3140 3135 3133 3134 3138 3144 3147 3153 3158 3166 3174 3181 3186 3191 3194 3197 3199 3201 3204 3205 3209 3212 3213 3216 3218 3220 3222 3223 3224 3225 3227 3228 3230 3231 3232 3232 3233 3235 3237 3238 3240 3242
3140 3143 3145 3145 3148 3150 3141 3137 3133 3131 3132 3134 3134 3135 3145 3153 3162 3168 3176 3183 3189 3192 3195 3198 3200 3202 3204 3206 3209 3212 3214 3217 3219 3220 3222 3222 3223 3224 3226 3227 3229 3230 3231 3232 3233 3234 3235 3237 3238
3139 3139 3140 3141 3143 3144 3143 3135 3135 3134 3132 3131 3132 3134 3140 3148 3157 3164 3170 3178 3185 3190 3192 3195 3198 3200 3203 3204 3207 3209 3212 3213 3216 3218 3220 3221 3222 3223 3224 3225 3226 3228 3229 3230 3232 3233 3233 3233 3234
3135 3138 3137 3138 3140 3140 3139 3137 3133 3133 3133 3133 3133 3132 3139 3147 3154 3160 3168 3175 3180 3185 3188 3193 3196 3198 3200 3202 3203 3206 3207 3210 3213 3215 3218 3219 3220 3222 3222 3222 3223 3226 3227 3228 3229 3229 3230 3231 3232